[[{"header":{"parameterUnit":"m.s-1","parameterCategory":1,"la1":30.2991,"la2":30.254,"lo1":-89.0895,"lo2":-89.0444,"dy":0.0017,"dx":0.0017,"nx":28,"ny":28,"refTime":"2025-09-17T21:00:00:Z","depth":0,"parameterNumber":2,"parameterNumberName":"U-component_of_WINDS"},"data":[0,0,0,0,0,0,0,0,0,0,0,0,0,0,0,0,0,0,0,0,0,0,0,0,0,0,0,0,0,0,0,0,0,0,0,0,0,0,0,0,0,0,0,0,0,0,0,0,0,0,0,0,0,0,0,0,0,0,-0.1104,-0.1104,0,-0.1115,-0.1115,-0.1115,-0.1092,-0.1091,-0.109,-0.1089,-0.1103,-0.1104,-0.1105,0,0,0,0,0,0,0,0,0,0,0,0,0,-0.1064,-0.1065,-0.1104,-0.1104,-0.1104,-0.1115,-0.1115,-0.1115,-0.1092,-0.1091,-0.109,-0.1089,-0.1103,-0.1104,-0.1105,0,0,0,0,0,0,0,0,0,0,0,0,0,-0.1079,-0.1065,-0.1104,-0.1094,-0.1093,-0.1115,-0.1115,-0.1115,-0.1092,-0.1091,-0.109,-0.1088,-0.1102,-0.1104,-0.1105,-0.1139,0,0,-0.111,-0.1111,0,0,0,0,0,0,0,0,-0.1078,-0.108,-0.1095,-0.1094,-0.1094,-0.1101,-0.1106,-0.1123,-0.1092,-0.1092,-0.1089,-0.1088,-0.1103,-0.1105,-0.1109,-0.1139,-0.114,-0.111,-0.1111,-0.1112,-0.1113,0,0,0,0,0,0,0,-0.1077,-0.108,-0.1108,-0.1095,-0.1094,-0.1089,-0.109,-0.1109,-0.1104,-0.1092,-0.109,-0.1092,-0.1103,-0.1108,-0.111,-0.114,-0.111,-0.1112,-0.1113,-0.1113,-0.1198,-0.1199,0,0,0,0,0,0,-0.1077,-0.1079,-0.1108,-0.1109,-0.1083,-0.1091,-0.1092,-0.11,-0.1104,-0.1103,-0.1093,-0.1091,-0.1106,-0.1108,-0.111,-0.115,-0.1112,-0.1114,-0.1115,-0.1197,-0.1198,-0.12,0,0,0,0,0,0,-0.1076,-0.108,-0.1108,-0.1093,-0.1097,-0.1093,-0.1102,-0.11,-0.1106,-0.1105,-0.1104,-0.1099,-0.1105,-0.1108,-0.1132,-0.115,-0.1114,-0.1116,-0.1195,-0.1197,-0.1199,-0.1229,0,0,0,0,0,0,-0.1075,-0.108,-0.1092,-0.1094,-0.1097,-0.1129,-0.1103,-0.1101,-0.1108,-0.1106,-0.111,-0.111,-0.1104,-0.1129,-0.1133,-0.1152,-0.1117,-0.1194,-0.1196,-0.1198,-0.1227,-0.1232,-0.1237,0,0,0,0,0,-0.1074,-0.1101,-0.1093,-0.1096,-0.1113,-0.113,-0.1132,-0.1124,-0.111,-0.1123,-0.1122,-0.111,-0.1147,-0.1132,-0.1136,-0.1155,-0.1193,-0.1195,-0.1198,-0.1225,-0.1231,-0.1237,0,0,0,0,0,0,-0.1102,-0.1101,-0.1092,-0.112,-0.1125,-0.1126,-0.1142,-0.1131,-0.1141,-0.1138,-0.1129,-0.113,-0.1156,-0.1158,-0.1141,-0.1188,-0.1167,-0.1171,-0.1186,-0.1192,-0.1197,-0.1197,-0.1119,0,0,0,0,0,-0.1111,-0.1125,-0.1123,-0.1148,-0.1151,-0.1146,-0.1153,-0.1146,-0.1152,-0.1154,-0.1155,-0.1161,-0.1174,-0.1183,-0.1195,-0.1226,-0.1227,-0.1241,-0.1246,-0.125,-0.1254,-0.1272,-0.1278,-0.1209,-0.1209,-0.1209,0,0,-0.1131,-0.1132,-0.1141,-0.1154,-0.1157,-0.1172,-0.1148,-0.1164,-0.1176,-0.1157,-0.1179,-0.118,-0.1186,-0.1214,-0.1227,-0.1217,-0.1273,-0.1254,-0.1257,-0.1259,-0.1275,-0.1282,-0.1288,-0.1211,-0.1211,-0.121,0,0,-0.1175,-0.1177,-0.1198,-0.1201,-0.1206,-0.1202,-0.1207,-0.1209,-0.1209,-0.1231,-0.1217,-0.123,-0.1253,-0.1258,-0.1263,-0.1308,-0.1298,-0.1312,-0.1339,-0.1355,-0.1361,-0.1366,-0.1383,-0.1389,-0.1316,-0.1316,-0.1316,0,-0.12,-0.1221,-0.121,-0.1228,-0.1234,-0.1216,-0.1238,-0.1242,-0.125,-0.1255,-0.1243,-0.1271,-0.1274,-0.1303,-0.1314,-0.1318,-0.1325,-0.1312,-0.1361,-0.1366,-0.137,-0.1386,-0.1392,-0.1317,-0.1317,-0.1317,-0.1317,0,-0.1251,-0.1265,-0.1282,-0.129,-0.1298,-0.1317,-0.131,-0.1319,-0.1312,-0.131,-0.1333,-0.1335,-0.1347,-0.1353,-0.1347,-0.1382,-0.1375,-0.1362,-0.1342,-0.1379,-0.1394,-0.14,-0.132,-0.1319,-0.1319,-0.1318,0,0,-0.1314,-0.1315,-0.1322,-0.1325,-0.1328,-0.134,-0.1359,-0.137,-0.1378,-0.1384,-0.1401,-0.1419,-0.1407,-0.1414,-0.1407,-0.1422,-0.1458,-0.1407,-0.1407,-0.1417,-0.1498,-0.1509,-0.1516,-0.145,-0.1451,-0.1452,-0.1498,0,-0.1358,-0.139,-0.1381,-0.1413,-0.1427,-0.141,-0.1426,-0.143,-0.1428,-0.144,-0.1438,-0.1452,-0.1434,-0.1438,-0.1451,-0.1451,-0.1474,-0.1447,-0.1466,-0.1467,-0.1467,-0.1524,-0.1535,-0.1578,-0.1503,-0.1504,-0.1505,0,-0.1415,-0.1422,-0.1456,-0.1457,-0.1462,-0.1477,-0.1486,-0.1497,-0.1502,-0.1499,-0.1506,-0.1496,-0.1515,-0.1493,-0.152,-0.1501,-0.1508,-0.1509,-0.151,-0.1513,-0.1489,-0.1529,-0.1591,-0.1599,-0.1514,-0.1513,-0.1512,0,-0.1459,-0.1478,-0.15,-0.1503,-0.1505,-0.1516,-0.1517,-0.152,-0.1527,-0.1535,-0.154,-0.155,-0.1557,-0.1565,-0.1559,-0.1543,-0.1586,-0.1564,-0.1586,-0.1586,-0.1597,-0.1597,-0.1663,-0.1599,-0.1599,-0.1599,-0.1599,0,-0.1511,-0.1532,-0.152,-0.1534,-0.1558,-0.1547,-0.157,-0.157,-0.1572,-0.1586,-0.1572,-0.1585,-0.1575,-0.1588,-0.1582,-0.1606,-0.1608,-0.1608,-0.1606,-0.161,-0.161,-0.1616,-0.1613,-0.1601,-0.1601,-0.16,-0.16,0,-0.1565,-0.1558,-0.1581,-0.158,-0.158,-0.1598,-0.1597,-0.161,-0.1606,-0.1624,-0.1628,-0.1623,-0.1637,-0.163,-0.1646,-0.1642,-0.1672,-0.1666,-0.1671,-0.167,-0.1693,-0.1691,-0.1766,-0.1776,-0.1704,-0.1705,-0.1706,0,-0.1599,-0.1615,-0.1615,-0.1623,-0.1625,-0.1638,-0.1645,-0.1634,-0.1642,-0.1648,-0.1661,-0.1673,-0.1683,-0.1707,-0.1705,-0.1716,-0.1712,-0.1737,-0.1713,-0.1717,-0.1714,-0.1713,-0.1715,-0.1742,-0.1743,-0.1744,-0.1744,0,-0.1661,-0.1656,-0.1666,-0.1676,-0.1684,-0.1691,-0.1696,-0.1704,-0.1693,-0.1703,-0.1717,-0.1725,-0.1739,-0.1753,-0.1763,-0.1764,-0.1753,-0.1751,-0.1757,-0.1762,-0.1765,-0.1765,-0.1685,-0.175,-0.175,-0.1749,-0.1749,-0.1749,-0.1707,-0.1721,-0.1723,-0.1735,-0.1737,-0.1743,-0.1755,-0.1753,-0.1764,-0.1775,-0.1768,-0.1784,-0.1788,-0.18,-0.1803,-0.1816,-0.1807,-0.1815,-0.1817,-0.182,-0.1824,-0.1761,-0.1818,-0.1818,-0.1818,-0.1818,-0.1817,0,-0.1769,-0.1769,-0.178,-0.1788,-0.1798,-0.1784,-0.179,-0.1799,-0.1813,-0.1817,-0.1827,-0.1843,-0.1856,-0.1854,-0.1865,-0.1876,-0.1872,-0.188,-0.188,-0.1881,-0.1831,-0.1826,-0.1884,-0.1884,-0.1884,-0.1884,-0.1884,-0.1884,-0.1803,-0.1825,-0.182,-0.1844,-0.1844,-0.186,-0.1864,-0.1869,-0.1872,-0.1891,-0.1901,-0.1899,-0.1901,-0.1912,-0.1923,-0.1923,-0.1928,-0.1939,-0.1937,-0.1891,-0.1884,-0.1878,-0.1873,-0.194,-0.194,-0.1985,-0.1986,-0.1986]},{"header":{"parameterUnit":"m.s-1","parameterCategory":1,"la1":30.2991,"la2":30.254,"lo1":-89.0895,"lo2":-89.0444,"dy":0.0017,"dx":0.0017,"nx":28,"ny":28,"refTime":"2025-09-17T21:00:00:Z","depth":0,"parameterNumber":3,"parameterNumberName":"V-component_of_WINDS"},"data":[0,0,0,0,0,0,0,0,0,0,0,0,0,0,0,0,0,0,0,0,0,0,0,0,0,0,0,0,0,0,0,0,0,0,0,0,0,0,0,0,0,0,0,0,0,0,0,0,0,0,0,0,0,0,0,0,0,0,-1.8881,-1.8882,0,-1.8899,-1.8899,-1.8899,-1.889,-1.8889,-1.8889,-1.8888,-1.8905,-1.8906,-1.8907,0,0,0,0,0,0,0,0,0,0,0,0,0,-1.8838,-1.8838,-1.8881,-1.8882,-1.8882,-1.8899,-1.8899,-1.8899,-1.889,-1.8889,-1.8889,-1.8888,-1.8905,-1.8906,-1.8907,0,0,0,0,0,0,0,0,0,0,0,0,0,-1.8856,-1.8839,-1.8881,-1.8879,-1.8879,-1.8899,-1.8899,-1.8899,-1.889,-1.8889,-1.8888,-1.8888,-1.8904,-1.8906,-1.8907,-1.8929,0,0,-1.8911,-1.8912,0,0,0,0,0,0,0,0,-1.8855,-1.8858,-1.8879,-1.8879,-1.8879,-1.8891,-1.889,-1.8909,-1.889,-1.8886,-1.8888,-1.8887,-1.8901,-1.8902,-1.8907,-1.893,-1.8931,-1.8911,-1.8912,-1.8912,-1.8913,0,0,0,0,0,0,0,-1.8854,-1.8857,-1.8888,-1.888,-1.888,-1.8877,-1.8878,-1.8893,-1.8897,-1.8886,-1.8885,-1.8888,-1.8901,-1.8906,-1.8908,-1.8931,-1.8911,-1.8912,-1.8913,-1.8914,-1.8972,-1.8972,0,0,0,0,0,0,-1.8853,-1.8856,-1.8888,-1.8889,-1.8865,-1.8878,-1.888,-1.8888,-1.8897,-1.8898,-1.8888,-1.8887,-1.8904,-1.8906,-1.8908,-1.8934,-1.8912,-1.8914,-1.8914,-1.8971,-1.8972,-1.8973,0,0,0,0,0,0,-1.8852,-1.8856,-1.8887,-1.8872,-1.8876,-1.8879,-1.8889,-1.8889,-1.8894,-1.8899,-1.8899,-1.8893,-1.8904,-1.8906,-1.8924,-1.8934,-1.8914,-1.8916,-1.897,-1.8971,-1.8972,-1.8986,0,0,0,0,0,0,-1.8851,-1.8855,-1.8865,-1.8872,-1.8877,-1.8903,-1.889,-1.889,-1.8897,-1.8895,-1.8903,-1.8904,-1.8903,-1.8922,-1.8925,-1.8936,-1.8917,-1.8969,-1.8971,-1.8972,-1.8985,-1.8987,-1.899,0,0,0,0,0,-1.8849,-1.8868,-1.8865,-1.8869,-1.8888,-1.8904,-1.8906,-1.8905,-1.8898,-1.8906,-1.8909,-1.8904,-1.8933,-1.8924,-1.8927,-1.8938,-1.8968,-1.897,-1.8972,-1.8983,-1.8987,-1.899,0,0,0,0,0,0,-1.8861,-1.8869,-1.8866,-1.8888,-1.8895,-1.8902,-1.8913,-1.8909,-1.8919,-1.8917,-1.8916,-1.8918,-1.8935,-1.8939,-1.8929,-1.896,-1.8949,-1.8952,-1.8957,-1.896,-1.8963,-1.8961,-1.8918,0,0,0,0,0,-1.8866,-1.8879,-1.8885,-1.8903,-1.8907,-1.891,-1.8916,-1.8915,-1.8923,-1.8925,-1.8929,-1.8936,-1.8947,-1.8954,-1.8964,-1.8985,-1.8986,-1.8995,-1.8997,-1.8999,-1.9001,-1.9011,-1.9014,-1.8978,-1.8978,-1.8978,0,0,-1.8877,-1.8883,-1.8891,-1.8906,-1.8911,-1.8923,-1.8912,-1.8926,-1.8934,-1.8927,-1.8944,-1.8947,-1.8955,-1.8974,-1.8982,-1.8977,-1.9011,-1.9001,-1.9003,-1.9004,-1.9013,-1.9016,-1.9019,-1.8979,-1.8979,-1.8979,0,0,-1.8902,-1.8909,-1.8924,-1.893,-1.8938,-1.894,-1.8943,-1.8951,-1.8953,-1.8969,-1.8964,-1.8974,-1.8993,-1.8998,-1.9003,-1.9029,-1.9024,-1.9033,-1.9046,-1.9056,-1.9058,-1.9061,-1.9069,-1.9072,-1.9035,-1.9035,-1.9035,0,-1.8914,-1.8933,-1.8932,-1.8946,-1.8952,-1.8947,-1.8962,-1.8967,-1.8979,-1.8983,-1.8977,-1.8999,-1.9004,-1.9024,-1.903,-1.9035,-1.9038,-1.9031,-1.9058,-1.9061,-1.9063,-1.907,-1.9074,-1.9036,-1.9036,-1.9035,-1.9035,0,-1.8946,-1.8959,-1.897,-1.8981,-1.8989,-1.9003,-1.9004,-1.9012,-1.901,-1.9012,-1.9028,-1.9034,-1.9044,-1.9049,-1.9047,-1.9068,-1.9064,-1.9058,-1.9047,-1.9067,-1.9074,-1.9077,-1.9037,-1.9037,-1.9036,-1.9036,0,0,-1.8979,-1.8989,-1.8993,-1.8998,-1.9006,-1.9016,-1.903,-1.904,-1.9046,-1.9054,-1.9064,-1.908,-1.9074,-1.908,-1.9079,-1.9088,-1.9106,-1.9081,-1.9081,-1.9084,-1.9127,-1.9131,-1.9134,-1.9103,-1.9104,-1.9104,-1.9126,0,-1.9004,-1.9028,-1.9027,-1.9049,-1.906,-1.9055,-1.9066,-1.9073,-1.9074,-1.9083,-1.9085,-1.9096,-1.9089,-1.9092,-1.91,-1.9102,-1.9115,-1.9101,-1.9112,-1.9112,-1.9109,-1.9138,-1.9142,-1.9162,-1.9129,-1.913,-1.913,0,-1.9036,-1.9044,-1.9067,-1.9073,-1.9078,-1.9088,-1.9097,-1.9106,-1.9113,-1.9113,-1.9119,-1.9117,-1.9129,-1.9119,-1.9136,-1.9126,-1.9131,-1.9133,-1.9133,-1.9133,-1.9121,-1.9137,-1.9168,-1.9171,-1.9134,-1.9134,-1.9134,0,-1.9055,-1.9073,-1.9088,-1.9092,-1.91,-1.9107,-1.9111,-1.9117,-1.9123,-1.913,-1.9134,-1.9143,-1.9148,-1.9155,-1.9154,-1.9147,-1.9171,-1.9161,-1.917,-1.917,-1.9175,-1.9174,-1.9206,-1.918,-1.918,-1.918,-1.918,0,-1.9082,-1.9096,-1.9097,-1.9107,-1.9121,-1.9121,-1.9135,-1.9138,-1.9143,-1.9152,-1.9149,-1.9157,-1.9157,-1.9165,-1.9165,-1.9178,-1.9181,-1.9181,-1.918,-1.918,-1.918,-1.9182,-1.918,-1.9181,-1.9181,-1.918,-1.918,0,-1.9106,-1.9108,-1.9124,-1.913,-1.9132,-1.9142,-1.9147,-1.9155,-1.9157,-1.9168,-1.9171,-1.9173,-1.9183,-1.9183,-1.9195,-1.9194,-1.921,-1.9209,-1.9208,-1.9207,-1.9216,-1.9215,-1.9249,-1.9253,-1.9226,-1.9226,-1.9227,0,-1.9122,-1.9133,-1.914,-1.9145,-1.9149,-1.9159,-1.9165,-1.9165,-1.9171,-1.9179,-1.9186,-1.9195,-1.9202,-1.9218,-1.922,-1.9228,-1.9226,-1.9238,-1.9228,-1.9227,-1.9225,-1.9224,-1.9224,-1.9239,-1.924,-1.924,-1.924,0,-1.915,-1.915,-1.9159,-1.9168,-1.9175,-1.9182,-1.9188,-1.9193,-1.9194,-1.9201,-1.9211,-1.9216,-1.9228,-1.9236,-1.9244,-1.9247,-1.9243,-1.9244,-1.9246,-1.9245,-1.9244,-1.9243,-1.9211,-1.9242,-1.9242,-1.9242,-1.9242,-1.9242,-1.917,-1.9178,-1.9184,-1.9194,-1.9199,-1.9204,-1.9212,-1.9215,-1.9223,-1.9232,-1.9231,-1.9242,-1.9247,-1.9257,-1.9261,-1.9269,-1.9265,-1.9269,-1.9269,-1.927,-1.927,-1.9244,-1.927,-1.927,-1.927,-1.927,-1.927,0,-1.9196,-1.92,-1.9209,-1.9218,-1.9225,-1.9221,-1.9228,-1.9234,-1.9243,-1.9249,-1.9256,-1.9267,-1.9275,-1.9278,-1.9286,-1.9291,-1.929,-1.9293,-1.9292,-1.9293,-1.9274,-1.927,-1.9295,-1.9295,-1.9295,-1.9295,-1.9295,-1.9295,-1.9211,-1.9225,-1.9225,-1.9241,-1.9244,-1.9254,-1.9258,-1.9263,-1.9267,-1.928,-1.9287,-1.9288,-1.9292,-1.9301,-1.9308,-1.9308,-1.9311,-1.9315,-1.9315,-1.9297,-1.9294,-1.9292,-1.9288,-1.9316,-1.9316,-1.9332,-1.9333,-1.9333]}]]